Wind_Speed
16 18 24 25 24 23 23 22 20 19 18 17 17 16 16 16 15 15 14 14 13 12 11 11 10 9 8 8 7 8 8 8 9 10 10 9 8 9 9 8 8 8 6 6 6 7 8 8 9 10 9 10 11 10 10 10 11 11 11 12 13 14 13 12 11 9 10 11 9 8 9 10 10 10 9 9 7 7 7 7 7 8 10 10 9
18 19 24 26 25 24 23 23 22 20 19 17 17 16 16 16 15 15 14 13 12 11 11 10 9 9 8 8 8 9 9 8 9 10 11 9 8 8 8 6 6 6 5 5 6 7 7 7 8 8 9 9 9 9 10 10 10 10 10 10 11 11 12 12 11 11 10 10 8 7 7 7 8 8 8 8 7 6 7 7 7 8 9 9 9
18 20 23 26 26 24 23 23 23 21 20 19 18 17 16 16 16 15 14 13 12 11 10 10 9 9 9 8 8 9 9 9 9 10 10 10 9 9 8 6 5 5 4 4 5 6 6 6 7 7 8 8 7 8 8 8 8 8 9 9 9 9 10 11 11 11 10 9 8 7 6 5 6 6 6 6 6 5 7 8 8 9 9 9 10
19 20 23 26 27 25 24 24 23 22 21 20 19 18 17 16 15 15 15 13 12 12 11 11 10 9 9 8 8 9 9 9 9 10 10 9 10 9 8 6 6 5 4 5 6 6 6 6 5 5 6 6 6 6 7 7 7 6 6 6 6 7 7 9 9 9 10 8 5 4 5 5 4 5 5 5 5 5 6 8 9 9 9 9 9
19 19 22 27 28 26 24 24 24 23 22 22 21 20 18 17 16 15 15 14 12 12 12 11 11 10 10 8 8 8 8 8 9 9 8 8 9 8 8 7 6 5 5 5 6 6 6 5 4 3 3 5 5 4 5 5 5 5 3 2 2 3 4 6 8 8 7 5 1 3 5 4 4 5 5 5 5 6 6 7 8 8 8 9 9
19 20 22 28 29 27 25 24 24 24 23 23 21 20 19 18 17 16 15 14 13 13 12 12 11 10 10 9 8 8 8 7 8 8 7 7 7 7 8 8 6 5 5 6 6 6 6 4 2 1 3 4 4 2 2 2 3 5 5 2 2 3 3 4 7 8 6 4 3 4 6 5 4 4 5 5 6 6 6 7 7 6 7 8 8
18 18 21 28 29 28 26 25 25 25 24 23 22 21 20 19 19 18 16 15 14 13 13 12 12 11 10 10 9 8 8 8 8 7 6 5 6 7 8 8 6 6 6 6 6 6 5 3 0 1 4 4 3 1 1 3 4 6 6 4 3 4 6 6 6 8 6 5 7 6 6 5 4 3 3 4 5 6 7 7 7 5 5 6 7
16 16 20 28 30 29 27 25 25 25 24 24 23 22 21 20 20 19 18 16 15 14 14 13 12 11 11 11 10 9 8 8 9 8 7 6 6 6 8 8 7 6 6 6 6 5 4 3 1 1 4 3 1 1 3 4 5 5 5 4 4 5 6 7 8 8 8 7 9 7 6 5 3 3 2 3 4 4 5 6 6 5 4 5 6
16 15 19 27 30 29 27 26 26 25 24 24 24 23 22 21 21 20 19 18 16 15 15 14 13 12 12 11 10 10 10 10 10 9 8 7 6 7 8 9 8 7 6 6 5 4 3 3 1 0 2 2 1 2 4 5 4 3 2 2 3 4 5 7 8 10 10 8 8 6 5 5 4 4 3 3 4 3 2 4 6 4 3 3 4
16 14 17 25 29 29 28 26 26 25 24 23 24 23 22 21 21 20 20 19 17 16 16 15 14 13 13 12 11 11 11 11 11 11 10 8 8 9 9 9 9 7 7 6 5 4 3 2 1 0 2 4 2 3 5 4 2 1 2 2 3 4 6 8 9 10 10 9 8 5 5 7 6 5 4 2 2 2 2 3 4 1 1 1 3
16 14 16 22 27 29 28 27 27 25 23 23 23 23 21 21 21 20 20 19 18 18 17 17 15 14 13 13 12 12 12 12 12 12 11 9 9 10 9 10 9 7 6 5 4 2 2 1 1 1 2 4 2 4 4 2 2 4 4 4 4 5 6 10 10 10 10 9 8 6 7 9 8 6 3 2 2 2 2 2 2 1 2 4 4
17 15 15 19 23 27 28 28 27 26 24 24 24 23 21 20 20 19 20 20 19 19 18 18 16 15 14 14 13 13 13 12 13 13 12 11 11 10 8 9 10 7 6 7 6 3 2 2 2 2 3 2 3 3 2 3 4 5 5 5 5 5 6 9 10 10 9 9 8 7 8 9 9 7 4 4 4 3 3 3 3 2 4 5 4
18 16 16 17 20 25 28 28 28 27 26 25 24 24 22 21 20 19 19 20 20 19 19 19 18 16 16 15 14 15 14 14 15 14 13 12 11 10 9 9 10 8 6 8 7 5 3 3 3 4 4 3 3 2 4 5 5 5 5 5 5 5 5 7 9 10 10 9 8 8 9 9 9 7 5 6 5 3 3 4 4 3 4 4 3
18 18 18 17 18 21 25 28 28 28 27 26 25 24 23 22 21 20 19 19 20 19 19 19 19 17 17 16 16 16 15 16 16 16 14 12 11 10 10 9 9 9 7 6 6 5 4 4 3 4 5 4 1 4 5 5 5 5 5 5 6 6 6 7 9 11 11 9 9 8 9 9 9 7 5 5 4 3 4 4 4 4 3 3 3
17 19 19 18 18 19 22 25 28 29 28 27 26 25 24 24 22 21 20 19 19 19 19 19 19 18 18 18 18 17 17 17 17 17 15 13 12 11 10 10 9 11 9 7 6 5 6 5 4 4 4 1 3 5 6 6 6 6 6 6 6 6 6 8 11 11 10 9 8 8 8 8 9 8 6 5 4 4 3 3 3 2 2 2 2
16 18 20 20 19 20 22 24 26 28 29 28 27 26 25 25 24 23 22 21 20 19 19 19 19 19 19 19 19 18 18 19 18 17 16 14 13 12 11 10 9 10 11 9 8 8 7 6 6 5 3 2 5 6 7 6 7 7 7 6 6 6 5 8 11 10 8 7 7 7 8 8 9 8 7 5 4 4 3 2 2 2 1 2 2
17 18 20 21 21 21 23 24 25 27 29 29 28 27 26 26 25 24 23 22 21 20 20 19 19 20 20 19 18 18 19 19 19 17 16 14 13 12 11 9 8 8 11 11 9 10 8 7 9 7 4 4 5 6 7 7 7 7 7 7 6 6 6 8 11 10 8 6 5 5 8 8 8 7 6 5 5 4 3 2 2 2 2 2 2
18 19 21 21 21 22 23 25 26 27 29 30 29 28 27 27 27 26 25 24 23 22 21 20 20 21 21 20 19 18 19 20 19 17 15 14 13 12 10 9 9 8 10 12 10 10 9 10 10 7 5 5 6 6 7 7 7 7 7 6 6 6 6 8 10 9 7 6 5 5 7 8 7 6 5 5 4 3 3 2 2 2 2 2 3
18 19 21 21 22 22 23 25 27 28 29 30 30 30 29 28 28 27 26 25 24 23 22 21 21 22 22 21 20 17 19 19 18 17 16 15 14 13 11 10 10 9 11 11 11 10 10 12 11 8 7 7 7 7 7 7 7 6 6 6 6 6 6 7 8 7 5 4 3 4 7 8 6 5 4 4 4 3 3 2 2 3 2 2 2
18 20 22 22 22 22 23 25 28 29 30 31 32 32 31 30 29 29 28 26 26 24 23 22 22 23 23 22 20 18 19 20 19 18 17 16 14 13 12 11 10 10 12 11 11 10 10 13 12 10 8 8 8 7 7 7 7 7 6 6 6 6 6 6 6 5 4 3 2 3 6 7 5 4 3 3 3 2 2 2 2 2 2 2 2
18 20 22 23 23 24 24 25 27 29 30 31 32 33 32 32 31 30 29 28 27 25 24 23 23 23 23 23 21 21 21 21 20 19 18 17 15 14 14 12 12 12 13 13 12 11 11 12 12 11 9 9 8 7 7 7 7 7 7 7 6 6 6 5 5 4 3 3 3 3 5 5 5 4 2 2 1 1 1 2 2 2 2 2 1
19 21 23 24 24 25 25 25 26 28 30 31 33 33 33 33 32 31 30 29 28 26 25 24 24 24 24 23 23 23 23 22 21 20 19 18 17 16 15 14 13 13 14 15 13 12 12 12 12 12 10 9 8 8 8 7 7 6 6 6 6 6 5 5 4 4 4 4 4 4 5 4 4 3 1 1 1 2 2 3 3 2 2 2 2
19 22 23 24 25 25 25 26 26 27 29 31 33 34 34 34 34 33 32 30 29 27 26 25 25 25 25 25 25 25 24 23 22 21 21 20 19 18 16 16 15 13 14 15 15 13 13 12 13 13 11 10 9 9 8 8 7 5 5 5 4 4 4 4 4 5 5 4 5 5 5 5 5 3 1 2 2 2 3 3 3 3 3 3 3
20 21 21 22 24 26 26 27 27 26 28 30 32 33 34 35 35 34 33 31 30 29 28 27 26 26 26 26 27 27 26 25 23 23 22 21 20 19 18 17 16 14 14 16 16 15 14 13 13 13 12 11 11 10 9 8 6 5 4 4 3 3 3 3 3 4 4 4 4 5 5 5 6 5 3 2 2 3 4 3 3 4 4 4 3
19 19 20 21 23 25 27 28 28 27 28 29 30 32 33 35 36 35 34 32 31 31 30 29 28 28 27 28 28 28 27 26 25 24 23 22 21 20 20 18 17 16 15 17 18 18 17 15 15 15 12 11 11 10 10 8 7 6 5 4 3 3 2 2 3 3 3 3 3 4 4 5 6 5 4 3 3 3 4 4 4 4 4 4 3
17 19 21 21 21 23 25 28 29 29 28 29 29 30 32 34 35 35 34 34 33 32 32 31 30 30 29 29 30 29 28 27 26 25 24 23 23 22 21 20 20 18 17 19 20 20 20 19 18 15 12 12 11 11 10 8 8 7 5 4 4 4 3 3 2 3 3 2 3 3 4 4 5 6 6 4 4 4 4 4 4 4 4 3 3
18 19 20 21 21 22 23 26 29 30 30 29 29 30 32 33 33 33 33 34 34 33 33 32 31 31 31 31 31 30 29 27 26 25 25 24 24 24 23 22 21 20 19 20 22 23 22 21 20 16 13 13 12 11 11 9 9 7 6 5 5 5 4 4 3 3 2 2 2 2 3 4 5 6 7 4 4 4 4 4 4 4 4 3 3
18 18 20 21 22 22 22 24 26 29 31 30 30 30 31 32 32 31 32 32 33 34 34 33 32 32 32 32 32 31 29 28 27 26 26 25 25 25 24 23 23 22 21 22 24 25 24 23 21 17 15 15 13 13 12 11 10 8 7 7 6 5 5 5 4 3 3 2 2 2 3 4 5 7 7 5 4 5 4 4 4 4 4 3 3
17 18 18 20 22 22 22 23 24 26 30 31 31 31 31 31 32 32 32 31 32 32 32 32 33 33 32 32 32 31 30 29 28 27 27 27 26 26 25 24 23 22 22 24 25 27 26 25 22 19 17 17 16 15 14 13 12 10 9 9 8 7 5 5 5 5 3 3 3 3 3 4 5 7 8 7 5 5 5 5 5 5 5 4 4
14 16 16 18 20 21 21 22 22 23 26 30 31 31 30 31 31 31 31 31 31 31 31 31 32 33 34 33 32 31 31 30 29 28 29 28 27 26 26 25 24 23 24 26 27 27 27 26 24 21 19 19 19 18 16 15 14 12 11 11 9 8 7 6 6 6 4 3 3 3 3 4 6 7 9 9 7 6 6 6 6 6 6 6 5
9 9 11 13 15 18 20 21 21 21 24 27 30 30 30 31 31 30 29 29 30 30 30 30 31 33 34 34 33 32 31 31 31 30 30 30 29 28 26 25 24 24 25 27 28 28 27 26 24 22 21 21 21 19 18 17 16 15 13 12 11 9 8 8 7 7 5 4 3 3 4 5 7 8 10 11 11 11 11 10 9 7 8 8 6
14 12 10 9 10 14 17 19 20 21 23 25 27 29 30 30 30 29 28 27 26 28 29 29 30 30 31 32 33 33 33 32 32 32 32 31 30 29 27 26 25 25 25 27 27 27 26 24 22 21 20 21 22 20 19 18 18 16 14 13 12 11 10 9 9 8 7 5 4 4 5 6 7 9 11 12 12 14 14 13 12 9 8 9 8
18 15 9 5 6 10 13 16 18 20 22 23 25 27 28 28 28 28 28 27 25 25 27 28 27 27 29 30 31 32 33 33 33 33 33 32 31 29 28 27 26 25 25 26 26 25 25 24 22 20 20 22 23 21 20 19 18 17 15 14 13 13 12 11 10 9 8 7 6 6 6 6 8 10 11 11 12 13 13 13 14 10 9 11 9
18 16 13 9 3 3 7 11 14 17 19 21 23 24 25 26 25 25 25 27 26 25 25 25 25 24 26 28 28 30 32 33 33 33 32 32 32 30 29 27 26 25 25 26 26 25 26 25 24 22 22 23 23 23 22 21 20 18 17 16 15 14 14 13 12 11 10 9 8 8 8 8 9 10 11 12 12 12 11 12 14 11 12 13 9
20 18 17 14 9 5 1 4 8 13 17 19 20 21 22 23 22 21 20 22 25 25 25 24 24 23 23 25 27 29 30 32 33 33 32 32 31 30 29 28 26 25 25 26 26 26 27 27 26 24 23 23 23 23 23 22 21 20 18 17 17 16 16 15 14 12 11 11 10 9 9 9 10 11 12 12 12 12 11 12 14 13 13 14 10
22 20 18 16 14 12 7 4 2 4 9 13 16 17 17 18 19 18 16 16 19 22 23 23 23 23 22 22 24 27 29 31 32 32 31 31 31 29 28 27 27 27 27 27 28 28 28 28 26 26 25 24 24 23 23 22 21 19 18 18 17 17 17 16 15 13 12 12 12 11 11 10 10 12 12 13 13 13 12 12 14 14 14 16 14
24 22 20 19 18 16 12 9 7 5 2 4 9 9 9 11 13 13 12 12 13 16 18 19 21 22 22 21 21 23 26 29 30 30 30 30 30 29 28 28 28 28 28 29 29 29 29 28 27 26 26 26 25 25 23 21 20 18 17 17 17 17 17 16 15 14 14 13 13 13 12 12 11 12 13 14 14 14 14 14 13 14 15 17 17
24 24 23 22 20 18 16 13 10 8 6 3 3 5 5 7 8 8 8 8 8 10 12 14 16 19 20 20 20 20 22 26 28 28 27 27 27 27 28 28 29 30 30 30 30 30 29 29 28 27 27 27 27 27 25 23 20 18 17 16 16 15 15 15 15 15 14 14 14 14 14 14 14 13 13 14 15 15 16 15 14 15 16 17 18
26 25 24 24 23 22 19 17 15 11 9 6 4 4 5 6 6 6 6 5 5 6 8 9 11 13 15 16 17 18 19 22 25 26 25 25 25 27 28 29 30 31 31 31 30 30 29 29 28 28 28 28 28 27 26 23 20 18 17 15 14 14 14 14 15 15 15 15 16 16 15 16 16 16 15 14 15 16 16 16 16 17 17 17 17
28 27 27 26 26 24 23 23 21 16 13 11 7 5 5 4 4 4 3 3 3 4 5 5 6 7 9 11 13 14 16 18 21 23 24 24 25 27 28 29 31 32 32 32 31 31 31 30 30 29 29 27 26 25 25 24 21 17 16 16 14 13 14 14 14 14 15 16 17 17 17 17 18 18 18 16 15 16 16 17 17 18 19 18 18
30 30 29 28 27 25 24 25 24 21 19 18 15 12 10 8 7 5 3 1 0 1 2 2 3 3 4 6 8 9 11 12 15 19 23 25 25 26 28 29 30 32 33 33 33 32 31 31 30 29 29 28 26 25 26 26 22 16 12 13 14 14 14 14 14 16 16 17 18 18 19 19 19 18 19 18 17 17 16 16 17 18 19 20 20
30 30 29 29 27 26 24 24 23 22 22 21 19 18 16 13 12 10 7 5 3 1 1 2 3 3 3 4 5 6 8 9 11 15 20 23 24 25 27 28 29 30 32 32 32 32 31 31 30 29 29 30 29 28 30 28 22 18 13 8 8 11 13 15 17 19 18 19 19 20 20 20 19 19 19 19 19 18 18 17 17 17 19 20 20
29 30 29 29 28 27 25 24 23 23 22 20 18 18 17 15 14 13 11 10 9 5 3 1 3 4 4 3 4 5 7 8 9 12 16 19 22 24 25 26 28 29 30 31 31 31 31 31 31 31 29 29 28 29 34 32 25 20 13 5 5 5 7 14 20 23 21 21 22 21 21 21 20 20 20 20 20 20 19 19 18 18 19 20 20
29 30 30 29 28 27 26 25 25 24 22 20 18 17 15 14 14 13 13 12 11 9 7 5 4 5 6 6 6 6 7 8 9 10 13 16 19 21 22 24 25 27 28 30 31 31 31 32 32 32 31 28 26 28 34 37 31 22 11 2 3 3 3 10 17 22 23 23 23 23 23 23 22 22 22 22 22 22 21 21 20 19 20 20 20
29 29 29 29 28 27 26 25 24 24 22 21 19 17 16 15 14 14 15 15 15 14 13 10 8 7 7 8 8 8 8 8 9 10 11 14 16 18 20 21 22 24 26 28 30 30 31 32 32 33 33 31 28 28 32 37 37 32 21 7 4 3 4 5 8 13 21 25 24 24 24 24 24 24 24 24 23 23 23 23 22 20 21 21 20
28 27 28 29 29 28 26 25 25 24 23 21 19 19 20 19 18 18 18 18 19 18 16 13 11 9 8 9 9 9 9 9 9 10 11 12 13 15 17 19 20 21 23 25 27 29 30 31 32 33 34 34 32 27 29 36 37 36 32 21 12 6 3 7 5 2 12 21 24 24 25 25 25 25 25 25 25 25 25 24 24 23 22 22 22
26 27 28 29 30 30 28 27 26 25 23 21 20 20 21 21 20 20 20 19 19 19 16 14 12 10 9 9 9 10 9 9 9 9 9 11 12 12 14 16 18 19 19 21 24 27 28 29 31 33 34 35 34 28 28 33 34 33 36 33 25 13 5 8 7 2 3 11 20 25 26 26 26 27 28 27 26 26 26 26 25 25 24 24 24
25 27 28 29 30 30 29 28 28 27 25 23 23 22 22 21 20 19 19 19 19 18 16 14 13 12 10 9 9 10 10 10 10 10 9 9 10 11 12 13 16 17 18 18 20 23 27 28 29 31 33 34 34 32 30 30 31 31 35 37 33 23 15 12 12 10 5 3 10 17 23 28 28 29 30 30 30 29 29 29 27 26 26 26 26
25 26 27 27 28 29 30 29 29 29 27 26 25 25 24 22 21 20 20 19 18 16 15 14 14 13 13 12 11 11 10 9 10 11 11 11 10 10 10 11 13 15 17 18 18 20 23 26 28 29 31 33 34 34 31 31 32 32 31 33 34 28 21 17 16 15 8 4 5 7 14 20 22 30 34 32 32 33 32 31 29 28 27 27 28
23 24 26 27 28 28 28 29 29 29 29 28 27 27 26 25 24 23 22 20 19 17 16 16 16 15 15 15 15 14 13 11 10 10 12 13 12 11 10 10 11 12 14 17 18 19 20 23 25 27 29 30 33 35 34 33 34 34 32 30 30 26 20 15 14 15 10 7 5 4 11 15 15 25 36 37 35 35 34 33 31 30 29 29 29
22 24 25 26 26 26 26 28 28 28 29 29 28 29 28 27 26 24 23 23 22 22 21 21 20 18 18 18 16 15 14 14 13 11 11 13 13 12 11 11 11 11 13 14 16 19 20 22 23 25 26 28 30 32 34 34 33 35 34 32 31 29 24 18 18 20 15 9 5 3 10 18 17 19 27 35 38 35 34 35 34 32 32 31 31
Wind_Direction
201 190 186 183 181 177 175 170 167 167 162 162 160 161 160 160 161 161 160 157 159 158 158 157 154 153 153 156 159 158 154 139 133 130 128 131 123 123 121 111 104 103 100 104 112 109 109 109 105 99 94 87 80 80 81 80 79 77 76 77 82 90 93 94 95 97 105 106 101 98 100 103 103 101 97 92 91 83 77 80 82 82 82 80 77
188 183 188 184 184 180 178 174 170 170 165 166 164 165 165 165 166 164 163 162 165 166 164 159 156 155 154 156 163 163 162 151 141 139 135 136 132 135 134 119 107 108 101 101 114 114 113 112 108 100 96 92 82 82 83 83 83 81 80 78 79 84 89 93 96 96 98 103 100 95 97 102 104 103 100 96 90 76 70 78 83 79 79 82 84
178 180 188 185 185 183 181 177 173 171 168 169 167 169 169 170 170 168 167 167 170 172 169 165 164 159 155 155 159 163 165 158 150 147 142 141 143 149 151 136 120 117 111 115 123 123 119 116 117 106 99 94 83 83 85 86 86 85 86 81 79 81 88 94 97 100 101 102 96 93 97 97 99 102 105 106 100 81 70 74 76 76 77 81 84
181 180 186 186 185 185 185 180 177 173 171 172 171 173 174 173 173 174 173 171 174 176 173 168 167 158 155 154 152 158 162 160 154 150 145 148 153 153 156 149 138 134 127 130 132 127 122 122 128 115 104 93 80 84 85 87 83 79 87 84 83 86 89 96 102 103 104 101 92 102 110 102 95 98 107 111 106 89 76 72 69 70 73 79 84
188 184 185 187 185 187 187 183 181 176 174 175 174 176 176 176 177 180 178 175 175 178 176 168 165 158 156 154 149 151 153 154 151 149 148 152 159 157 157 157 149 145 141 132 128 123 118 122 132 123 115 96 84 86 82 81 66 45 45 60 106 114 104 104 115 118 113 100 90 155 127 108 94 94 104 105 103 94 79 72 69 65 68 75 82
191 186 187 187 186 188 188 186 183 179 179 178 177 177 178 180 182 182 180 179 179 180 176 169 165 161 159 157 156 151 148 150 148 152 153 155 163 168 166 161 152 150 154 141 129 122 114 115 129 144 148 116 94 84 63 37 0 350 349 324 252 210 181 141 132 137 135 97 86 150 130 98 81 94 108 104 98 93 81 74 73 68 66 72 76
192 188 189 188 187 188 189 188 185 183 183 182 180 179 179 182 184 184 183 181 182 183 175 172 169 166 167 166 166 162 159 157 156 161 162 159 159 168 169 161 155 155 152 139 128 119 113 117 78 159 155 130 95 76 358 328 323 324 327 313 263 229 207 190 165 156 156 114 93 126 137 110 81 78 108 108 93 89 85 77 73 68 59 64 68
191 189 190 189 190 189 190 189 187 186 186 186 184 183 182 184 185 185 184 182 184 183 175 174 173 173 176 174 174 173 172 168 166 165 164 159 150 157 163 159 157 156 143 130 125 117 112 112 62 137 153 136 92 349 326 321 320 315 308 296 257 229 209 198 189 177 175 147 109 115 136 126 100 66 79 100 89 82 83 79 77 69 50 51 60
191 189 190 192 192 190 192 190 189 189 188 188 187 187 186 187 187 187 185 182 183 180 175 177 179 180 183 181 178 181 181 175 170 165 161 153 144 146 152 158 158 155 141 131 126 113 108 110 106 170 176 191 237 323 326 329 324 313 289 262 232 213 195 183 183 182 183 172 142 128 118 117 122 109 109 106 94 85 73 92 92 71 41 43 49
194 190 192 195 195 193 193 192 191 190 190 189 189 190 190 191 189 189 186 180 180 179 176 179 183 184 187 186 182 189 187 179 173 166 164 157 153 155 153 158 159 157 148 139 132 116 106 111 155 231 256 239 258 330 331 338 344 64 119 142 163 177 174 166 168 172 177 178 169 154 116 123 136 130 130 108 90 93 81 114 120 83 31 103 93
197 194 193 196 198 196 195 194 194 192 191 191 192 192 191 194 192 189 187 182 181 181 181 182 186 187 189 188 188 195 190 184 179 171 170 167 167 171 167 165 161 158 154 150 147 145 148 142 214 217 236 236 281 341 346 9 80 104 108 118 130 146 159 163 166 162 164 171 167 150 127 134 135 125 122 88 74 96 100 130 139 168 131 132 128
197 200 195 197 200 200 199 196 196 195 194 195 196 196 193 194 194 192 189 187 186 185 186 186 187 189 188 188 193 199 194 184 180 177 178 176 175 179 181 181 177 169 168 173 168 172 196 201 211 196 202 243 332 358 44 89 104 107 108 113 123 131 144 161 167 158 155 160 155 142 135 139 132 121 111 93 79 89 108 123 129 139 128 126 133
192 202 200 199 201 202 202 200 199 198 198 198 199 199 197 196 196 195 193 194 193 190 190 189 187 189 190 191 196 201 194 181 181 185 187 189 185 184 188 193 196 189 188 195 191 186 195 210 204 201 231 301 351 59 100 111 112 111 111 114 122 125 132 148 156 151 153 157 152 144 141 143 133 121 113 103 91 96 112 127 137 145 136 130 124
186 196 203 204 203 203 204 204 203 201 201 201 201 202 201 200 198 197 198 199 200 196 193 191 189 189 193 196 200 201 192 184 188 192 194 198 196 196 200 203 211 207 202 203 205 202 197 210 207 203 251 299 49 109 115 119 117 115 114 115 118 123 127 130 135 142 155 162 157 152 146 145 135 121 117 110 103 112 116 125 132 135 143 135 121
190 193 201 205 206 205 205 207 207 205 204 203 203 203 203 203 201 199 201 203 204 202 198 195 194 193 196 201 204 203 193 189 193 195 200 206 204 207 214 219 225 216 203 199 206 207 199 206 205 201 251 280 123 125 126 126 122 120 117 117 119 124 127 128 131 140 156 164 164 162 154 149 137 124 121 118 114 122 121 122 129 129 151 156 151
199 197 200 204 207 207 205 207 210 209 207 207 206 204 205 205 203 202 202 205 205 204 202 201 201 198 201 208 210 207 196 192 193 197 205 210 211 216 225 228 229 220 206 205 210 206 197 198 207 214 240 183 140 134 134 131 128 126 123 125 128 131 128 126 135 146 156 161 165 165 164 155 140 127 117 117 115 118 123 125 141 148 181 195 210
198 203 203 205 208 208 206 206 209 210 210 210 209 207 206 206 205 204 203 205 205 205 204 205 207 203 206 214 216 209 199 197 197 202 208 211 213 219 228 228 230 228 206 200 203 200 194 200 216 219 215 172 150 143 141 136 131 128 129 132 133 133 125 126 143 157 157 158 156 152 164 159 147 134 115 111 108 111 126 125 144 170 200 223 245
194 205 206 208 209 209 208 207 207 209 211 211 211 210 208 208 208 207 205 207 208 208 207 207 209 208 209 215 220 212 202 202 203 205 209 210 210 216 228 229 235 229 197 191 194 196 193 205 220 213 194 174 158 153 147 140 135 133 135 138 134 131 128 135 152 164 162 164 154 145 163 160 152 137 111 113 114 115 131 130 159 181 190 230 253
194 205 210 212 211 211 210 208 209 208 211 212 212 212 210 210 210 210 209 209 211 211 210 209 211 212 212 216 221 216 207 206 206 207 209 212 213 220 231 232 235 217 191 190 191 194 197 212 220 205 190 177 165 160 153 146 142 142 142 141 138 137 143 151 162 171 172 168 151 147 161 159 152 135 121 141 146 144 155 157 189 197 193 213 247
198 205 211 216 215 214 212 210 211 210 212 213 214 214 213 211 211 213 212 212 213 214 214 212 213 214 213 216 219 216 210 208 208 211 215 219 222 228 234 231 229 213 195 193 194 195 201 217 219 203 193 180 172 167 160 157 155 154 152 148 147 151 157 166 175 182 176 143 129 148 160 154 138 123 132 165 174 170 178 178 194 197 193 211 237
205 209 213 217 218 218 216 214 213 213 214 215 216 216 215 212 212 214 215 215 216 217 217 215 216 215 215 216 215 213 210 208 210 216 220 225 229 234 238 233 231 222 207 198 198 199 203 215 213 203 194 181 177 172 169 169 166 163 155 149 152 157 161 168 174 172 161 145 147 160 169 164 135 117 125 142 149 161 164 151 152 161 166 188 207
215 215 217 217 218 220 220 219 216 216 216 216 217 217 217 214 213 215 216 217 218 219 219 218 218 216 215 215 213 212 209 210 212 216 220 226 231 234 236 237 237 231 218 204 199 202 202 206 207 202 190 181 181 178 178 175 172 165 151 147 151 151 152 161 155 140 149 154 159 168 176 180 156 130 145 152 130 134 123 122 130 132 139 139 138
225 223 223 221 219 220 221 222 221 219 217 217 218 218 217 215 214 215 217 218 219 220 220 220 219 217 216 215 214 212 210 211 213 216 221 226 230 233 236 239 240 236 225 211 201 201 200 202 206 198 185 184 187 184 182 180 178 168 151 147 147 143 142 148 138 133 145 146 150 165 172 184 176 146 143 165 145 134 119 118 127 119 123 124 124
238 237 234 228 223 221 222 224 225 224 220 218 219 218 217 217 215 215 217 218 219 220 219 220 219 217 217 216 214 213 212 213 215 219 224 228 230 232 234 236 237 235 228 215 203 200 203 205 206 195 183 189 192 189 188 185 183 174 163 158 147 145 152 148 132 128 134 135 142 157 163 180 181 151 136 167 153 137 129 126 127 121 127 124 120
252 246 237 232 229 226 224 223 225 226 223 220 219 219 217 217 216 216 218 219 220 220 219 220 219 218 218 216 214 214 214 215 218 221 225 228 229 229 229 230 232 231 226 216 205 203 207 206 205 196 185 193 196 194 194 190 192 188 176 172 169 174 189 179 147 137 135 135 141 152 160 173 179 155 141 177 166 144 143 141 137 133 136 127 122
253 244 239 237 233 230 228 224 223 224 225 224 221 220 218 217 218 218 220 220 221 220 219 220 220 219 219 216 214 214 215 216 220 223 226 228 227 227 228 229 230 228 224 216 207 206 209 206 207 199 187 199 203 200 198 193 201 201 187 185 193 193 208 219 179 159 160 157 152 155 162 167 181 167 148 172 176 156 152 148 150 147 142 136 130
247 248 247 243 235 231 231 226 223 223 224 225 224 221 219 219 220 219 219 220 220 220 220 220 220 220 219 217 215 215 216 217 220 223 226 227 228 228 229 229 229 227 224 217 210 209 210 209 208 199 192 202 207 207 203 198 204 204 196 197 208 208 210 230 224 195 191 191 183 173 176 169 180 175 154 162 177 162 161 158 159 158 150 148 141
244 249 250 243 238 233 230 228 225 224 223 223 223 222 221 220 220 219 219 220 220 220 220 220 220 220 220 219 217 218 218 219 220 223 226 227 228 228 227 228 228 227 224 218 214 212 212 213 209 199 197 204 207 212 210 206 207 205 206 208 215 220 216 231 240 230 215 207 206 193 190 180 180 180 161 158 177 169 169 172 170 173 169 163 155
241 246 248 243 242 238 230 228 228 227 225 223 222 222 221 220 220 220 220 221 221 221 221 222 221 220 220 220 220 220 220 220 221 223 226 227 227 226 225 225 226 225 223 219 216 215 214 216 213 204 203 207 208 212 213 212 211 208 211 214 216 221 220 230 244 247 234 219 224 211 202 191 180 185 170 155 172 184 182 188 187 186 183 177 170
251 250 246 245 245 238 231 231 232 232 228 224 222 222 221 219 220 221 221 221 222 222 222 222 222 221 221 222 222 223 222 222 222 224 227 227 226 224 223 224 225 225 224 220 217 217 217 217 216 210 208 210 211 212 213 214 214 211 210 212 215 219 221 226 240 254 253 242 237 221 208 200 183 184 178 160 162 182 187 193 192 189 188 182 173
314 294 275 262 249 239 236 235 234 234 231 226 225 223 222 221 221 222 223 223 223 224 223 224 224 223 223 224 225 226 226 226 225 225 227 227 225 223 223 223 226 227 226 221 217 218 219 220 219 214 211 211 213 214 215 215 215 214 211 210 212 217 222 225 233 244 252 250 238 226 208 201 191 185 184 174 168 174 180 185 186 190 193 185 177
22 8 335 296 264 249 243 240 236 233 231 229 228 226 225 224 223 223 223 224 224 224 225 226 226 226 226 226 226 227 227 227 226 225 225 225 223 223 224 225 228 229 226 221 218 219 221 223 223 219 215 213 214 216 216 216 216 214 211 209 212 217 221 223 231 239 245 245 235 232 215 202 197 191 191 191 185 180 182 185 181 179 194 195 195
35 32 21 349 290 265 252 244 236 232 231 231 231 229 228 226 225 225 225 225 224 224 225 225 226 227 226 226 227 227 227 227 226 225 224 224 224 224 226 227 229 229 226 220 218 220 220 220 220 219 216 213 214 216 215 214 215 216 212 210 213 218 223 224 228 235 240 243 237 228 218 209 203 198 197 200 200 195 194 195 183 176 196 203 203
37 41 45 44 22 277 261 250 237 233 233 232 231 230 230 227 227 228 228 228 226 226 225 224 225 226 226 225 226 227 227 228 227 226 224 224 224 224 227 229 229 227 224 220 217 219 218 215 215 215 215 215 214 215 214 212 213 215 213 213 215 219 225 226 227 230 234 239 237 226 218 214 210 206 204 203 207 208 209 203 191 186 197 197 191
39 43 45 49 60 68 12 260 237 235 233 231 231 230 231 228 228 229 230 231 229 229 229 228 227 227 228 227 227 227 227 227 228 226 224 224 225 225 228 230 228 225 222 220 218 217 216 215 214 214 214 215 216 215 215 215 214 215 214 213 215 219 224 226 226 227 231 234 235 232 225 219 215 212 210 209 210 214 214 206 200 196 195 191 178
39 43 45 51 64 69 63 61 112 223 229 228 227 227 229 228 228 231 232 232 230 230 230 231 230 229 230 229 227 226 225 226 227 227 226 225 226 228 230 229 226 223 221 220 218 217 216 215 216 217 215 213 212 213 215 217 217 215 214 214 216 219 223 226 227 226 227 229 230 233 232 226 220 216 214 214 213 214 212 207 208 204 199 194 181
42 46 49 55 64 69 66 63 65 62 75 207 213 210 212 216 221 225 228 229 228 228 229 230 230 230 231 232 230 228 225 226 226 227 227 227 228 231 231 227 224 223 221 219 219 219 218 216 215 218 219 215 210 209 210 214 216 215 214 215 217 220 223 224 227 228 227 226 225 228 231 232 229 223 220 219 218 217 216 212 213 211 206 201 191
43 48 53 59 65 68 67 63 59 53 50 80 165 163 158 175 189 196 202 206 210 217 221 224 227 228 231 234 234 232 229 227 227 227 228 229 230 232 231 226 224 223 221 220 220 220 220 220 216 214 217 217 212 209 209 210 211 211 212 214 217 219 224 225 226 229 228 226 226 225 226 231 235 234 228 223 223 222 222 219 216 212 208 205 202
43 47 54 61 66 67 67 64 63 64 63 74 107 122 119 133 147 158 170 174 182 197 206 215 223 228 231 233 234 234 233 230 228 228 229 231 231 231 231 228 225 223 221 220 220 219 220 221 219 215 214 216 218 215 210 207 204 204 206 206 211 216 221 226 226 227 226 226 226 225 225 228 233 237 236 230 226 227 227 224 217 213 212 211 210
43 46 52 58 62 65 67 63 61 67 73 74 77 81 80 88 103 122 139 150 172 182 189 201 210 222 228 229 230 230 232 233 233 233 235 236 236 234 232 229 226 224 222 221 220 221 221 221 221 218 213 212 217 216 211 204 194 189 194 197 201 209 218 222 223 225 226 225 224 226 228 229 230 234 238 237 232 231 230 228 224 219 219 220 220
44 45 47 51 55 62 65 63 63 68 70 67 65 63 60 57 57 59 69 74 243 212 202 213 215 225 237 241 238 233 231 233 236 240 241 242 240 236 232 229 226 224 225 226 226 226 225 224 222 219 216 212 211 211 209 201 185 173 180 193 199 203 208 213 220 225 226 224 224 228 231 230 230 231 235 237 236 235 234 232 229 227 226 226 228
44 44 45 47 52 58 62 63 66 69 68 67 67 64 63 65 68 69 77 88 83 84 224 281 290 290 285 272 261 251 246 242 241 243 245 246 243 238 234 232 229 227 228 229 230 228 225 225 222 217 217 216 214 210 203 195 185 181 178 176 198 210 212 213 219 225 224 223 224 228 231 231 231 230 231 234 234 235 236 235 232 230 231 231 231
46 48 47 47 49 52 58 63 67 69 69 69 68 64 65 69 70 71 77 84 79 75 83 24 322 326 327 313 293 274 263 257 250 248 250 253 250 242 237 235 233 231 230 228 228 228 226 225 224 220 216 215 217 212 204 200 193 182 174 174 198 205 226 226 223 222 218 219 222 225 230 233 233 232 231 232 232 232 233 235 233 231 233 234 234
45 48 49 48 48 49 55 62 67 69 69 70 70 71 73 75 74 74 76 74 68 65 67 61 33 9 1 354 340 324 307 290 277 265 259 260 259 252 245 240 237 235 233 231 229 229 228 226 225 224 218 210 211 213 209 207 202 189 173 141 155 159 237 228 220 220 216 217 223 225 228 232 231 230 230 231 231 231 230 231 232 232 233 236 236
42 44 48 51 51 50 53 59 66 69 71 72 73 75 76 77 79 79 76 73 66 61 60 57 51 40 24 12 1 350 338 321 303 288 275 268 266 264 260 253 248 243 239 235 234 235 233 230 228 226 221 215 213 214 211 209 210 209 200 172 133 189 236 201 198 217 214 214 222 225 228 230 228 228 229 232 231 229 228 228 229 230 233 236 237
44 45 49 54 56 55 54 56 61 65 69 73 76 78 75 72 71 68 63 61 57 51 50 49 48 44 31 17 9 2 351 341 324 307 294 285 278 274 271 268 263 255 249 243 240 240 238 235 233 230 227 224 220 217 214 212 215 217 214 213 217 222 192 159 150 214 214 216 220 222 225 226 227 229 231 233 232 229 228 226 226 227 229 234 235
48 51 52 55 58 58 56 55 57 60 64 69 76 78 76 70 67 63 57 54 50 47 48 50 46 37 27 16 10 5 359 357 349 334 318 304 295 288 283 280 276 271 263 254 247 246 246 244 241 236 234 232 226 221 220 217 217 220 221 225 233 242 220 182 177 160 192 224 223 220 223 224 225 229 231 233 233 231 229 227 226 224 225 229 232
52 56 56 55 58 60 60 59 58 59 61 65 71 74 74 71 66 63 58 53 50 47 47 49 47 42 36 26 13 5 356 355 358 357 350 334 317 306 299 293 287 283 278 269 259 254 253 251 248 243 239 236 231 228 227 222 220 223 224 226 234 243 240 223 213 199 166 194 223 221 224 224 225 228 231 233 233 232 230 227 226 224 224 227 229
56 59 60 59 60 62 62 62 60 60 61 63 67 69 72 71 67 62 57 53 52 50 49 46 43 41 41 37 28 19 5 350 347 350 353 352 345 330 317 307 300 293 288 284 276 266 260 256 254 250 245 241 238 235 234 230 227 228 228 228 233 240 242 241 233 217 200 195 210 216 218 219 227 232 232 233 233 233 232 229 227 226 225 226 229
61 64 65 64 64 63 63 62 60 61 62 64 65 66 67 68 65 61 55 51 49 48 47 43 37 33 32 29 27 27 24 15 2 349 344 343 340 338 335 324 315 307 297 291 287 280 272 266 261 258 254 250 245 241 239 237 236 235 233 230 231 234 237 240 234 225 225 226 216 205 202 199 214 229 229 229 230 230 230 229 228 227 226 226 228
63 66 67 66 66 64 63 63 61 62 63 64 66 66 66 67 65 62 57 52 50 48 45 39 34 30 28 23 20 20 20 21 19 9 358 347 335 327 327 328 325 319 310 302 295 289 285 279 274 268 263 259 253 248 244 241 240 240 239 236 233 231 229 229 227 221 220 223 214 204 205 204 212 228 228 227 227 227 228 228 228 228 226 224 226
Height
813 814 816 816 818 818 820 821 823 825 826 827 828 829 830 831 832 833 834 834 835 836 836 837 838 838 839 839 840 841 841 842 843 844 844 845 846 847 847 848 848 848 849 848 849 849 849 849 849 849 849 850 850 850 850 850 850 850 850 851 851 851 851 851 851 851 851 851 852 852 852 852 852 852 852 852 852 852 852 852 852 852 851 852 852
810 813 814 815 817 817 819 819 822 823 825 826 827 829 829 830 831 832 833 834 835 836 836 837 838 838 839 839 840 840 841 841 842 843 844 845 846 847 847 848 848 849 849 849 849 849 849 849 850 850 850 850 850 851 851 851 851 851 851 851 852 852 852 852 852 852 852 852 852 853 853 853 853 853 853 853 853 853 853 853 853 853 852 853 853
809 811 812 814 816 817 818 819 820 822 824 825 827 828 829 830 831 832 833 834 835 836 836 837 838 838 839 839 840 840 841 841 842 843 844 844 845 846 847 848 848 849 849 849 849 849 849 850 850 850 851 851 851 851 851 852 852 852 852 852 852 852 853 853 852 852 853 853 853 853 853 853 853 853 853 853 853 853 853 853 853 853 853 853 853
808 810 811 813 815 816 817 818 819 820 822 823 825 827 828 829 830 831 832 833 834 835 836 837 838 838 839 839 840 840 841 842 842 843 843 844 845 846 847 848 848 849 849 849 849 849 850 850 850 850 851 851 852 852 852 852 852 852 852 853 852 853 853 853 853 853 853 853 853 854 854 854 854 854 854 854 854 854 854 854 854 854 854 854 854
808 809 811 812 813 815 816 817 819 819 821 822 824 825 827 828 829 831 832 833 834 835 835 836 837 838 839 839 840 840 841 842 843 843 844 844 845 846 847 848 848 848 849 849 850 850 850 850 850 851 851 851 852 852 852 852 852 853 852 853 852 853 853 853 853 853 853 853 853 853 854 854 854 854 854 854 854 854 854 854 855 855 855 855 855
807 809 810 811 812 813 815 816 818 819 820 821 823 824 826 827 828 830 831 832 833 834 835 836 837 838 839 839 840 840 841 842 843 844 844 844 845 846 847 847 848 848 849 849 850 850 850 850 850 851 851 851 852 852 852 852 852 852 852 852 852 852 852 853 853 853 853 853 853 853 854 854 854 854 854 854 854 854 854 855 855 855 855 855 855
806 808 809 810 812 812 814 815 816 818 819 820 822 823 824 826 827 828 830 831 833 834 835 836 837 838 838 839 840 840 841 842 843 844 844 845 845 846 846 847 847 848 849 849 850 850 850 850 850 851 851 851 851 852 852 852 852 851 851 851 851 851 851 852 852 853 853 853 853 853 853 854 854 854 854 854 855 855 855 855 855 855 855 856 856
806 808 808 809 811 812 813 814 815 816 818 819 820 822 823 824 826 827 829 830 832 833 834 835 836 837 838 839 840 841 841 842 843 843 844 844 845 846 846 847 847 848 848 849 850 850 850 850 851 851 851 851 851 851 851 851 851 851 850 850 850 850 850 851 852 852 852 853 853 853 853 854 854 854 854 854 855 855 855 855 855 856 856 856 856
806 807 808 809 810 811 813 814 815 816 817 818 819 821 822 823 825 826 827 829 830 832 833 834 836 837 837 838 839 840 841 841 842 843 844 844 845 845 846 847 847 848 849 849 850 850 850 850 851 851 851 850 850 851 851 850 850 850 850 850 849 849 850 850 851 851 852 853 853 853 853 853 854 854 854 854 855 855 855 855 856 856 856 856 856
805 806 807 808 809 811 812 814 815 816 817 818 819 820 821 822 824 825 826 828 829 830 832 833 835 836 837 838 839 839 840 841 841 842 843 844 844 845 846 846 847 848 849 849 850 850 850 851 851 851 850 850 850 850 850 850 850 850 849 849 849 849 849 850 850 851 851 852 852 852 853 853 854 854 854 854 855 855 855 855 856 856 856 856 856
804 805 806 807 809 810 811 813 814 815 817 818 819 820 821 822 823 824 825 827 828 829 831 832 833 835 836 837 838 839 839 840 841 841 842 843 844 845 845 846 847 848 848 849 850 850 851 851 851 851 850 849 849 849 849 849 849 849 849 849 849 849 849 849 850 850 851 851 852 852 853 853 854 854 855 855 855 855 855 855 856 856 856 856 856
804 804 805 807 808 810 811 812 813 815 816 817 818 819 821 822 823 824 825 826 827 829 830 831 832 833 835 836 837 837 838 839 840 841 841 842 843 844 845 846 846 847 848 849 849 850 851 851 851 850 850 849 849 849 849 849 849 849 849 849 849 849 849 849 850 850 851 851 852 852 853 853 854 854 855 855 855 855 855 856 856 856 856 856 856
803 804 805 806 807 809 810 811 812 814 815 816 817 819 820 821 823 824 825 826 827 828 829 830 831 832 833 834 836 836 837 839 839 840 841 841 842 843 844 845 846 847 847 848 849 849 850 850 850 850 849 848 849 849 849 849 849 849 849 850 849 849 849 849 850 850 850 851 852 852 853 853 854 854 855 855 855 856 856 856 856 856 856 856 857
803 803 804 805 806 808 809 811 811 813 814 815 816 817 819 820 821 823 824 825 826 827 828 829 830 831 832 833 834 835 836 837 838 839 840 841 841 842 843 844 845 846 847 847 848 849 850 850 850 849 848 848 848 849 849 849 850 850 850 850 850 849 849 849 850 850 850 851 851 852 853 853 854 854 855 855 855 856 856 856 856 856 856 856 857
802 803 804 804 805 807 808 810 810 812 812 813 815 816 817 818 820 821 823 824 826 827 828 829 830 831 831 832 833 834 835 836 837 838 839 840 840 841 842 843 844 845 846 847 848 848 849 849 849 848 848 848 848 848 849 849 850 850 850 850 850 850 850 850 850 850 850 851 851 852 853 853 853 854 855 855 855 856 856 856 856 856 856 856 856
802 802 803 804 805 806 807 808 809 811 811 813 813 815 816 817 818 820 821 823 824 826 827 828 829 830 831 832 832 833 834 835 835 836 838 839 840 841 841 842 843 844 845 846 847 847 848 848 848 847 847 847 848 848 849 849 849 850 850 850 850 849 850 850 850 850 851 851 851 852 852 853 853 854 855 855 855 855 855 856 856 856 856 856 856
801 801 802 803 804 805 806 807 808 809 810 812 812 814 815 815 817 818 819 821 822 824 825 827 828 830 831 831 832 833 834 835 835 836 837 838 839 840 840 841 842 843 844 845 846 846 847 847 846 846 846 847 847 848 848 849 849 850 850 850 849 850 850 850 850 850 851 851 851 852 852 853 853 854 854 855 855 855 855 855 856 856 856 856 856
800 800 801 802 802 803 804 805 806 808 809 810 811 812 813 815 816 817 818 819 821 822 824 826 827 828 830 831 832 833 834 835 835 836 836 837 838 839 840 841 841 842 843 844 845 845 846 846 845 845 846 846 847 848 848 849 849 849 849 850 850 850 850 850 850 850 851 851 852 852 852 852 853 853 854 854 855 855 855 855 855 855 856 856 856
800 800 800 800 800 801 802 803 804 806 807 808 809 810 812 813 814 816 817 818 819 821 822 824 825 827 828 830 831 833 834 835 836 836 837 837 838 839 840 841 841 842 843 843 844 845 845 845 844 845 845 846 847 848 848 848 849 849 849 850 850 850 850 850 850 850 851 851 851 852 852 852 853 853 854 854 854 854 854 855 855 855 855 855 855
799 799 799 799 799 800 800 801 802 803 805 805 807 808 810 811 813 815 816 817 818 819 821 822 824 825 827 828 830 832 833 834 835 836 837 837 838 839 840 840 841 842 842 843 844 844 844 844 844 845 845 846 847 847 848 848 849 849 849 849 850 850 850 850 850 850 851 851 851 852 852 852 853 853 853 853 853 854 854 854 854 854 854 855 855
797 797 797 797 797 798 798 799 800 801 803 804 805 806 808 809 811 813 814 816 817 819 820 821 822 824 825 827 828 830 831 832 833 835 835 836 837 838 839 840 841 841 842 843 844 844 844 844 844 844 845 846 847 847 848 848 849 849 849 849 849 850 849 850 850 850 850 851 851 851 852 852 853 853 853 853 853 853 853 853 854 854 854 854 854
795 795 795 796 796 796 797 798 799 800 801 802 803 804 806 807 809 811 812 814 816 818 819 820 821 822 824 825 826 827 828 830 831 833 833 835 836 837 838 839 840 840 841 842 843 844 844 844 844 844 845 846 846 847 848 848 848 848 849 849 849 849 849 849 849 850 850 850 851 851 851 852 852 853 853 853 853 853 853 853 853 853 853 854 854
792 793 793 794 795 796 796 797 797 799 800 801 801 802 804 805 807 808 810 812 814 815 817 818 819 821 822 823 825 826 827 828 829 831 832 833 834 835 836 837 838 839 840 841 842 843 844 843 843 843 844 845 846 847 847 847 848 848 848 848 848 848 849 849 849 849 849 850 850 850 851 851 852 852 852 853 853 852 853 853 853 853 853 853 854
789 790 791 793 794 795 795 795 796 797 798 799 800 801 802 803 805 806 808 810 811 813 814 816 817 819 820 821 823 824 826 827 828 829 830 832 832 834 835 836 837 838 839 840 841 842 843 843 843 843 843 845 846 846 847 847 847 847 847 848 848 848 848 848 849 849 849 849 849 850 850 851 851 852 852 852 852 852 853 853 853 853 853 853 854
786 788 789 790 791 792 793 794 794 795 796 797 798 799 800 801 803 805 806 808 809 810 812 813 815 816 818 820 821 822 824 825 827 828 829 830 831 832 833 834 835 836 838 839 840 841 842 842 842 842 843 844 845 846 846 846 846 847 847 847 847 848 848 848 848 848 848 849 849 849 849 850 850 851 852 852 852 852 853 853 853 853 853 854 853
785 785 786 787 788 789 790 791 792 793 794 795 796 797 798 799 801 803 804 806 807 809 810 811 813 814 816 817 819 821 822 823 825 826 827 828 829 830 831 833 834 835 836 837 838 839 840 841 841 842 843 844 845 845 846 846 846 846 847 847 847 847 847 847 848 848 848 848 848 849 849 849 850 850 851 852 852 852 853 853 853 854 853 854 853
783 783 783 784 785 786 787 788 790 791 791 793 794 795 796 797 799 801 802 803 805 807 808 809 811 813 814 816 817 819 820 821 823 824 825 826 827 828 830 831 832 833 834 835 836 837 838 839 840 841 842 843 844 844 845 845 846 846 846 847 847 847 847 847 847 848 848 848 848 848 848 849 849 849 850 851 852 852 853 853 853 854 854 854 854
780 781 781 782 783 784 785 786 788 789 790 791 792 794 795 796 797 799 800 802 803 805 806 808 810 811 813 814 816 817 818 819 821 822 823 824 825 826 828 829 830 831 832 833 834 835 836 837 838 840 841 842 843 843 844 845 845 846 846 846 847 847 847 847 847 847 848 847 847 848 848 848 848 849 849 850 851 852 853 853 853 854 854 854 854
778 779 779 780 781 782 783 785 786 788 789 790 791 792 794 795 796 797 798 800 802 803 805 807 809 810 812 813 815 816 817 818 819 820 821 822 823 824 826 827 828 829 830 831 832 833 834 835 836 838 839 840 841 842 843 844 844 845 846 846 846 847 847 847 847 847 847 847 847 847 847 847 848 848 848 849 851 852 852 852 853 853 854 854 854
777 777 778 778 779 781 782 784 785 786 788 789 790 791 793 794 795 796 797 799 800 802 804 806 807 809 810 812 814 815 816 817 818 819 820 820 821 823 824 825 826 827 828 829 830 831 832 833 834 836 837 838 839 841 842 843 843 844 845 845 846 846 846 847 847 847 847 847 847 847 847 847 847 848 848 849 850 851 851 852 852 853 853 853 853
778 778 778 778 779 780 781 782 784 785 786 788 789 790 792 793 794 796 797 798 800 801 802 804 805 807 809 810 812 814 815 816 817 818 819 819 820 821 822 823 824 825 826 827 828 829 830 831 833 834 835 837 838 839 840 841 842 843 843 844 844 845 845 846 846 846 847 847 847 847 847 848 848 848 848 848 848 849 850 850 851 852 852 853 853
779 779 779 779 779 780 781 782 783 784 785 787 788 790 791 792 794 795 797 798 800 801 802 803 804 806 808 809 811 812 813 814 815 816 817 818 818 819 821 822 822 824 825 826 827 828 829 831 832 833 834 836 837 838 839 839 840 841 842 843 843 843 844 844 845 845 845 846 846 847 847 847 847 848 848 848 848 848 849 849 849 850 851 852 852
780 780 778 778 779 780 780 781 782 783 784 786 787 788 790 791 793 794 796 797 799 800 801 803 804 805 807 808 810 811 812 813 813 814 815 816 817 818 819 820 821 822 824 825 826 828 828 829 831 832 833 834 835 836 837 838 839 840 841 841 842 842 842 843 843 843 844 844 845 845 846 846 847 847 847 848 848 848 848 849 849 849 850 850 851
781 780 779 778 779 780 781 781 782 783 783 785 786 787 789 790 792 793 795 797 798 800 801 802 803 805 806 807 809 810 811 812 812 813 815 816 816 817 818 819 820 821 823 824 825 826 827 828 829 831 832 833 834 835 835 836 837 838 839 840 840 841 841 841 842 842 843 843 843 844 844 845 845 846 846 847 847 848 848 848 849 848 848 849 849
782 781 780 779 778 779 781 782 782 783 783 784 785 787 788 790 791 793 794 796 797 799 800 802 803 804 805 806 807 809 810 811 812 813 814 815 816 817 818 819 820 821 822 823 824 825 826 827 828 829 831 832 833 834 834 835 835 836 837 838 838 839 839 839 840 841 842 841 842 842 842 843 844 844 845 845 846 846 847 847 848 848 848 848 848
784 783 781 780 779 780 782 783 783 784 784 785 786 787 788 790 791 792 794 795 796 798 799 801 802 803 804 805 806 808 809 810 811 812 813 814 815 816 818 819 820 821 821 822 823 823 824 826 827 828 829 830 832 832 833 834 835 836 836 837 837 837 837 838 839 840 840 840 840 841 841 842 842 843 843 844 845 845 846 846 847 847 847 847 847
786 785 783 781 781 781 782 783 784 784 785 786 787 787 789 790 791 792 793 794 796 797 798 800 801 802 803 804 806 807 808 809 810 810 812 813 814 816 817 818 820 820 821 822 822 822 823 824 825 826 827 829 830 831 832 833 834 835 836 836 836 837 837 837 838 838 839 839 839 839 840 840 841 842 842 843 843 844 844 845 846 846 846 847 846
789 787 785 784 783 782 783 783 784 785 786 787 787 788 789 790 791 792 793 794 795 797 798 799 800 801 802 803 805 806 807 808 809 810 811 812 813 815 816 817 818 819 820 821 821 822 823 823 824 824 825 826 827 829 830 831 833 834 835 836 836 836 836 837 837 837 838 838 838 839 839 839 839 840 841 842 842 843 843 844 844 845 845 846 846
791 790 788 786 784 784 784 784 785 786 787 788 788 789 789 790 791 792 793 794 795 796 797 798 799 800 801 803 804 805 806 807 808 809 810 811 812 813 814 816 817 818 818 819 820 821 822 823 823 824 824 825 826 827 828 829 831 833 834 835 835 835 835 836 836 836 836 837 837 838 838 838 838 838 839 840 841 841 841 842 843 843 844 845 845
793 792 791 789 787 787 786 786 787 787 788 788 789 790 790 791 792 793 794 795 796 797 797 798 799 800 800 802 803 804 805 806 807 808 809 810 810 811 812 813 814 815 816 817 818 819 821 821 822 823 824 825 826 826 827 828 829 831 833 833 834 834 834 834 834 835 835 835 835 836 837 837 837 837 837 838 839 840 840 840 841 842 842 843 844
795 794 793 793 792 790 789 789 790 790 790 790 791 791 792 793 793 794 795 796 797 798 798 799 799 800 800 801 802 803 805 806 807 808 808 809 809 810 811 812 813 814 814 815 816 817 819 820 821 823 823 824 824 825 826 826 828 829 831 832 832 832 832 832 833 833 832 833 833 834 834 834 835 835 836 836 837 838 838 839 839 840 841 841 842
797 797 796 796 796 794 793 793 792 792 792 792 793 794 795 795 796 796 797 798 798 799 800 800 800 801 801 802 803 804 804 806 807 807 808 808 808 809 810 811 811 812 813 814 815 816 817 818 819 820 822 822 822 822 823 823 824 825 827 830 831 830 830 830 830 829 830 830 831 831 831 831 832 833 833 834 835 835 836 837 838 838 839 839 840
800 799 798 798 798 798 797 796 794 794 794 794 794 795 796 797 798 798 799 799 800 801 801 801 802 802 803 803 804 804 805 806 806 807 808 808 808 808 808 809 810 811 812 813 814 815 815 816 817 818 819 820 820 821 820 819 820 823 826 827 828 829 829 827 826 825 826 827 828 828 828 829 829 830 831 831 832 832 833 834 835 836 837 837 838
803 801 800 800 801 802 801 799 797 796 795 795 795 796 797 798 799 800 800 801 801 802 802 803 803 804 804 805 805 805 806 806 806 807 807 808 808 808 808 808 809 809 810 811 812 813 814 814 815 816 817 818 818 818 818 818 817 819 822 824 827 828 823 821 821 822 823 824 824 825 825 826 826 827 827 828 828 829 830 830 832 833 834 835 836
807 806 804 803 803 805 805 803 800 798 797 796 796 797 798 799 800 801 801 802 802 803 803 804 805 805 806 806 806 806 806 807 807 807 807 808 808 808 808 808 808 809 809 810 810 811 812 813 813 814 814 815 815 816 816 817 815 814 815 817 821 822 816 816 818 819 821 821 821 822 822 822 823 823 824 824 825 825 826 826 827 829 830 831 833
811 810 809 807 805 806 808 807 804 801 799 797 797 797 798 800 801 803 803 804 804 804 805 805 806 806 807 807 808 808 808 808 808 808 808 808 808 808 808 808 808 808 808 809 810 810 811 811 812 812 813 813 814 814 813 814 814 813 812 810 810 810 810 814 817 817 818 819 819 819 819 820 820 821 821 821 822 822 823 823 823 824 826 827 829
813 813 812 810 808 808 809 810 808 806 803 801 798 798 798 801 803 805 806 806 806 806 806 806 807 807 808 808 809 809 809 809 809 809 808 808 808 808 808 808 808 808 808 808 809 809 810 810 811 811 811 812 812 811 811 812 812 811 811 809 808 807 807 810 812 813 815 816 817 816 816 817 817 817 818 818 819 820 820 821 821 821 821 822 823
816 814 813 812 811 810 811 813 812 809 807 805 802 799 800 802 805 806 807 807 807 807 807 807 807 808 808 809 809 809 809 809 809 809 809 809 808 808 808 808 808 808 808 808 808 809 809 809 810 810 810 810 810 809 809 810 810 808 808 808 807 807 807 807 807 807 808 810 812 814 814 814 815 814 814 814 815 816 816 818 819 819 819 819 818
818 816 815 815 814 813 814 815 814 811 809 808 805 803 802 803 805 808 809 809 808 808 807 808 808 808 808 809 809 809 809 809 810 810 810 810 809 808 807 807 807 807 807 807 808 808 808 808 808 808 808 808 808 808 808 808 807 806 807 807 806 806 807 806 805 805 805 804 807 811 811 812 814 812 810 811 811 811 812 813 815 817 817 817 816
821 819 817 816 816 816 817 817 815 813 811 809 808 807 805 805 806 809 811 811 809 808 808 808 809 809 809 809 809 809 810 810 810 810 810 810 809 809 808 807 807 807 806 806 807 807 807 807 807 806 806 806 806 806 806 806 806 805 805 805 805 805 805 805 804 804 804 802 803 806 807 808 808 806 805 806 807 808 809 810 812 813 814 814 814
823 820 818 817 817 819 820 818 816 815 813 812 810 809 808 807 809 811 812 812 810 809 809 809 810 810 810 810 810 810 810 810 810 810 810 809 809 809 808 807 807 806 806 806 805 805 805 805 805 805 805 804 804 804 804 803 803 803 803 803 802 802 802 801 801 802 801 800 800 802 803 803 803 801 801 802 803 806 807 807 808 809 810 810 811